When you browse on this site, cookies collect data to enhance your experience and personalize the content and advertising you see.
Visit our Privacy Policy to learn more. By continuing to use the site, you agree to this use of cookies and data.
  • en Suisse
  • Liste des pays
  • À 7 jours
  • Température de l'eau
  • Carte météo
  • Widgets météo
  • user-avatar
    Se connecter

    Météo par heure à Starobeshevo

    Ce jour, 24 Février, Lundi

    Heure Température Précipitation Vent Pression Humidité
    00:00 0°C° 0 mm 7 m/s 749 mmHg 88%
    01:00 0°C° 0 mm 7 m/s 748 mmHg 91%
    02:00 0°C° 0 mm 7 m/s 747 mmHg 94%
    03:00 +1°C° 0 mm 6 m/s 747 mmHg 97%
    04:00 +1°C° 0.6 mm 6 m/s 746 mmHg 97%
    05:00 +1°C° 0.6 mm 6 m/s 745 mmHg 97%
    06:00 +1°C° 0.6 mm 6 m/s 744 mmHg 97%
    07:00 +1°C° 0.4 mm 6 m/s 743 mmHg 97%
    08:00 -1°C° 0.4 mm 7 m/s 743 mmHg 97%
    09:00 -1°C° 0 mm 7 m/s 742 mmHg 96%
    10:00 -1°C° 0.4 mm 7 m/s 741 mmHg 96%
    11:00 -1°C° 0.4 mm 8 m/s 740 mmHg 96%
    12:00 -1°C° 0.4 mm 9 m/s 739 mmHg 97%
    13:00 0°C° 0.4 mm 9 m/s 738 mmHg 96%
    14:00 0°C° 0.4 mm 9 m/s 736 mmHg 96%
    15:00 +1°C° 0.4 mm 10 m/s 735 mmHg 96%
    16:00 +1°C° 0.9 mm 9 m/s 734 mmHg 96%
    17:00 +1°C° 0.9 mm 8 m/s 733 mmHg 96%
    18:00 +2°C° 0.9 mm 7 m/s 732 mmHg 96%
    19:00 +2°C° 1 mm 6 m/s 731 mmHg 96%
    20:00 +2°C° 1 mm 5 m/s 731 mmHg 96%
    21:00 +1°C° 1 mm 5 m/s 731 mmHg 96%
    22:00 +1°C° 0.8 mm 5 m/s 731 mmHg 96%
    23:00 +1°C° 0.8 mm 5 m/s 732 mmHg 97%

    Demain, 25 Février, Mardi

    Heure Température Précipitation Vent Pression Humidité
    00:00 0°C° 0.8 mm 4 m/s 732 mmHg 97%
    01:00 -1°C° 0.9 mm 7 m/s 733 mmHg 96%
    02:00 -3°C° 0.9 mm 9 m/s 734 mmHg 96%
    03:00 -3°C° 0.9 mm 11 m/s 736 mmHg 95%
    04:00 -3°C° 0.4 mm 11 m/s 737 mmHg 94%
    05:00 -3°C° 0.4 mm 11 m/s 739 mmHg 92%
    06:00 -3°C° 0.4 mm 11 m/s 740 mmHg 90%
    07:00 -3°C° 0 mm 11 m/s 742 mmHg 86%
    08:00 -3°C° 0 mm 10 m/s 743 mmHg 82%
    09:00 -3°C° 0 mm 9 m/s 745 mmHg 78%
    10:00 -1°C° 0 mm 9 m/s 746 mmHg 74%
    11:00 -1°C° 0 mm 8 m/s 747 mmHg 70%
    12:00 0°C° 0 mm 8 m/s 747 mmHg 66%
    13:00 0°C° 0 mm 7 m/s 748 mmHg 63%
    14:00 +2°C° 0 mm 7 m/s 748 mmHg 60%
    15:00 +3°C° 0 mm 6 m/s 748 mmHg 57%
    16:00 +2°C° 0 mm 5 m/s 749 mmHg 61%
    17:00 +1°C° 0 mm 4 m/s 749 mmHg 64%
    18:00 +2°C° 0 mm 3 m/s 749 mmHg 67%
    19:00 +1°C° 0 mm 3 m/s 749 mmHg 68%
    20:00 +1°C° 0 mm 3 m/s 749 mmHg 69%
    21:00 0°C° 0 mm 3 m/s 750 mmHg 69%
    22:00 0°C° 0 mm 3 m/s 749 mmHg 72%
    23:00 0°C° 0 mm 3 m/s 749 mmHg 76%

    Après-demain, 26 Février, Mercredi

    Heure Température Précipitation Vent Pression Humidité
    00:00 0°C° 0 mm 3 m/s 749 mmHg 79%
    01:00 -1°C° 0 mm 4 m/s 749 mmHg 81%
    02:00 0°C° 0 mm 4 m/s 748 mmHg 83%
    03:00 0°C° 0 mm 4 m/s 748 mmHg 85%
    04:00 0°C° 0 mm 4 m/s 748 mmHg 86%
    05:00 0°C° 0 mm 4 m/s 747 mmHg 87%
    06:00 0°C° 0 mm 5 m/s 747 mmHg 89%
    07:00 0°C° 0 mm 5 m/s 747 mmHg 87%
    08:00 +1°C° 0 mm 6 m/s 747 mmHg 85%
    09:00 +2°C° 0 mm 7 m/s 747 mmHg 83%
    10:00 +3°C° 0 mm 7 m/s 746 mmHg 78%
    11:00 +4°C° 0 mm 8 m/s 746 mmHg 74%
    12:00 +5°C° 0 mm 9 m/s 746 mmHg 69%
    13:00 +5°C° 0 mm 9 m/s 745 mmHg 67%
    14:00 +5°C° 0 mm 9 m/s 745 mmHg 65%
    15:00 +6°C° 0 mm 9 m/s 745 mmHg 63%
    16:00 +5°C° 0 mm 9 m/s 744 mmHg 66%
    17:00 +4°C° 0 mm 8 m/s 744 mmHg 69%
    18:00 +4°C° 0 mm 8 m/s 744 mmHg 72%
    19:00 +4°C° 0 mm 8 m/s 744 mmHg 74%
    20:00 +2°C° 0 mm 8 m/s 744 mmHg 76%
    21:00 +3°C° 0 mm 7 m/s 744 mmHg 78%
    22:00 +3°C° 0 mm 7 m/s 743 mmHg 78%
    23:00 +3°C° 0 mm 7 m/s 743 mmHg 78%

    27 Février, Jeudi

    Heure Température Précipitation Vent Pression Humidité
    00:00 +3°C° 0 mm 7 m/s 743 mmHg 78%
    01:00 +3°C° 0 mm 6 m/s 742 mmHg 78%
    02:00 +3°C° 0 mm 6 m/s 742 mmHg 79%
    03:00 +3°C° 0 mm 5 m/s 742 mmHg 80%
    04:00 +3°C° 0 mm 5 m/s 742 mmHg 80%
    05:00 +3°C° 0 mm 5 m/s 741 mmHg 81%
    06:00 +4°C° 0 mm 6 m/s 741 mmHg 81%
    07:00 +4°C° 0 mm 6 m/s 741 mmHg 81%
    08:00 +4°C° 0 mm 6 m/s 741 mmHg 80%
    09:00 +5°C° 0 mm 7 m/s 741 mmHg 80%
    10:00 +6°C° 0 mm 7 m/s 741 mmHg 76%
    11:00 +8°C° 0 mm 7 m/s 741 mmHg 72%
    12:00 +10°C° 0 mm 8 m/s 741 mmHg 68%
    13:00 +10°C° 0 mm 8 m/s 740 mmHg 68%
    14:00 +11°C° 0 mm 8 m/s 740 mmHg 68%
    15:00 +12°C° 0 mm 9 m/s 740 mmHg 69%
    16:00 +11°C° 0 mm 8 m/s 740 mmHg 72%
    17:00 +10°C° 0 mm 7 m/s 740 mmHg 75%
    18:00 +10°C° 0 mm 6 m/s 740 mmHg 78%
    19:00 +9°C° 0 mm 6 m/s 740 mmHg 79%
    20:00 +9°C° 0 mm 6 m/s 740 mmHg 80%
    21:00 +9°C° 0 mm 5 m/s 740 mmHg 81%
    22:00 +8°C° 0 mm 5 m/s 740 mmHg 81%
    23:00 +8°C° 0 mm 5 m/s 740 mmHg 81%

    28 Février, Vendredi

    Heure Température Précipitation Vent Pression Humidité
    00:00 +7°C° 0 mm 4 m/s 739 mmHg 81%
    01:00 +7°C° 0 mm 4 m/s 739 mmHg 80%
    02:00 +6°C° 0 mm 4 m/s 738 mmHg 79%
    03:00 +6°C° 0 mm 4 m/s 738 mmHg 78%
    04:00 +6°C° 0.8 mm 4 m/s 737 mmHg 83%
    05:00 +6°C° 0.8 mm 4 m/s 737 mmHg 88%
    06:00 +5°C° 0.8 mm 4 m/s 736 mmHg 93%
    07:00 +4°C° 0.4 mm 6 m/s 736 mmHg 88%
    08:00 +4°C° 0.4 mm 8 m/s 736 mmHg 84%
    09:00 +3°C° 0.4 mm 9 m/s 736 mmHg 80%
    10:00 +3°C° 0 mm 11 m/s 737 mmHg 76%
    11:00 +2°C° 0 mm 12 m/s 737 mmHg 72%
    12:00 +1°C° 0 mm 13 m/s 738 mmHg 69%
    13:00 +1°C° 0.1 mm 13 m/s 739 mmHg 70%
    14:00 0°C° 0.1 mm 12 m/s 741 mmHg 72%
    15:00 +1°C° 0.1 mm 11 m/s 742 mmHg 74%
    16:00 +1°C° 0 mm 10 m/s 743 mmHg 66%
    17:00 0°C° 0 mm 8 m/s 744 mmHg 59%
    18:00 +1°C° 0 mm 6 m/s 745 mmHg 52%
    19:00 +1°C° 0 mm 6 m/s 746 mmHg 56%
    20:00 0°C° 0 mm 5 m/s 747 mmHg 59%
    21:00 -1°C° 0 mm 4 m/s 748 mmHg 63%
    22:00 -1°C° 0 mm 4 m/s 748 mmHg 64%
    23:00 -1°C° 0 mm 4 m/s 748 mmHg 65%

    29 Février, Samedi

    Heure Température Précipitation Vent Pression Humidité
    00:00 -1°C° 0 mm 4 m/s 748 mmHg 66%
    01:00 -1°C° 0 mm 4 m/s 748 mmHg 68%
    02:00 -1°C° 0 mm 4 m/s 748 mmHg 70%
    03:00 -1°C° 0 mm 4 m/s 748 mmHg 72%
    04:00 0°C° 0 mm 3 m/s 748 mmHg 74%
    05:00 0°C° 0 mm 3 m/s 748 mmHg 76%
    06:00 +1°C° 0 mm 2 m/s 748 mmHg 78%
    07:00 0°C° 0 mm 3 m/s 748 mmHg 76%
    08:00 0°C° 0 mm 4 m/s 748 mmHg 74%
    09:00 +1°C° 0 mm 5 m/s 748 mmHg 72%
    10:00 +2°C° 0 mm 6 m/s 747 mmHg 69%
    11:00 +3°C° 0 mm 6 m/s 747 mmHg 66%
    12:00 +4°C° 0 mm 7 m/s 747 mmHg 63%
    13:00 +3°C° 0.3 mm 6 m/s 747 mmHg 72%
    14:00 +1°C° 0.3 mm 6 m/s 747 mmHg 81%
    15:00 0°C° 0.3 mm 5 m/s 747 mmHg 90%
    16:00 0°C° 0.3 mm 5 m/s 747 mmHg 84%
    17:00 0°C° 0.3 mm 4 m/s 747 mmHg 78%
    18:00 0°C° 0.3 mm 3 m/s 748 mmHg 72%
    19:00 0°C° 0 mm 3 m/s 748 mmHg 72%
    20:00 -1°C° 0 mm 3 m/s 749 mmHg 72%
    21:00 -1°C° 0 mm 3 m/s 750 mmHg 72%
    22:00 -1°C° 0 mm 3 m/s 750 mmHg 72%
    23:00 -1°C° 0 mm 3 m/s 751 mmHg 72%
    Voir plus